This is the latest recevied weather packets stored in our database for station/object LRBS. If no packets are shown the sender has not sent any weather packets the latest 10 day(s).
| Time | Temp. | Humidity | Pressure | Rain* | Wind** | Luminosity | Snow |
|---|---|---|---|---|---|---|---|
| 1778113995 | 10° C | 82% | 1015 hPa | - | - | - | - |
| 1778113094 | 10° C | 82% | 1015 hPa | - | - | - | - |
| 1778112194 | 10° C | 82% | 1015 hPa | - | - | - | - |
| 1778111294 | 11.11° C | 77% | 1015 hPa | - | - | - | - |
| 1778110394 | 11.11° C | 77% | 1015 hPa | - | - | - | - |
| 1778109495 | 12.78° C | 63% | 1015 hPa | - | - | - | - |
| 1778108594 | 12.78° C | 63% | 1015 hPa | - | - | - | - |
| 1778107694 | 12.78° C | 63% | 1015 hPa | - | - | - | - |
| 1778106794 | 12.78° C | 63% | 1015 hPa | - | - | - | - |
| 1778105894 | 13.89° C | 59% | 1015 hPa | - | - | - | - |
| 1778104993 | 13.89° C | 59% | 1015 hPa | - | - | - | - |
| 1778104110 | 16.11° C | 48% | 1015 hPa | - | - | - | - |
| 1778103194 | 16.11° C | 48% | 1015 hPa | - | - | - | - |
| 1778102294 | 17.22° C | 49% | 1015 hPa | - | - | - | - |
| 1778101394 | 17.22° C | 49% | 1015 hPa | - | - | - | - |
| 1778100495 | 17.22° C | 56% | 1015 hPa | - | - | - | - |
| 1778099594 | 17.22° C | 56% | 1015 hPa | - | - | - | - |
| 1778098694 | 17.22° C | 56% | 1015 hPa | - | - | - | - |
| 1778097794 | 17.22° C | 56% | 1015 hPa | - | - | - | - |
| 1778096913 | 17.78° C | 56% | 1015 hPa | - | - | - | - |
| 1778096018 | 17.78° C | 56% | 1015 hPa | - | - | - | - |
| 1778095095 | 17.22° C | 59% | 1014 hPa | - | - | - | - |
| 1778094194 | 17.22° C | 59% | 1014 hPa | - | - | - | - |
| 1778093300 | 17.78° C | 56% | 1014 hPa | - | - | - | - |
| 1778092395 | 17.78° C | 56% | 1014 hPa | - | - | - | - |
* Rain since midnight (hover to see other rain measurements)
** Current wind speed in m/s (hover to see current wind gust speed)